Le nostre stazioni meteo in Italia

Pubblicità
Il mio iltempo24.it
Vignola, Italia (16137): Temperatura & dewpoint: 03.04.2020 18:00:00 - 09.04.2020 18:00:00 (CEST)Vignola, Italia (16137): reduced air pressure: 03.04.2020 18:00:00 - 09.04.2020 18:00:00 (CEST)Vignola, Italia (16137): precipitazioni: 03.04.2020 18:00:00 - 09.04.2020 18:00:00 (CEST)
Data & Tempo tt [°C] td [°C] ppp [hPa] rr [mm]
09.04.2020 18:00:00 21,2 -4,1 1020,3 0,0
09.04.2020 17:00:00 21,8 -5,1 1020,7 0,0
09.04.2020 16:00:00 22,3 -3,9 1021,2 0,0
09.04.2020 15:00:00 21,9 -3,5 1021,8 0,0
09.04.2020 14:00:00 21,3 -4,7 1022,4 0,0
09.04.2020 13:00:00 21,0 -3,5 1022,8 0,0
09.04.2020 12:00:00 19,4 -0,1 1023,5 0,0
09.04.2020 11:00:00 18,2 -1,1 1023,9 0,0
09.04.2020 10:00:00 17,1 -2,1 1023,8 0,0
09.04.2020 09:00:00 12,5 -1,1 1024,0 0,0
09.04.2020 08:00:00 9,0 -2,3 1023,9 0,0
09.04.2020 07:00:00 8,7 -4,8 1023,3 0,0
09.04.2020 06:00:00 8,4 -4,8 1023,4 0,0
09.04.2020 05:00:00 7,8 -4,6 1023,6 0,0
09.04.2020 04:00:00 4,2 -3,1 1023,9 0,0
09.04.2020 03:00:00 5,2 -2,9 1024,3 0,0
09.04.2020 02:00:00 10,8 -4,4 1024,3 0,0
09.04.2020 01:00:00 11,2 -4,1 1024,4 0,0
09.04.2020 00:00:00 9,2 -3,1 1024,5 0,0
08.04.2020 23:00:00 6,3 -1,4 1024,9 0,0
08.04.2020 22:00:00 8,1 -0,9 1024,8 0,0
08.04.2020 21:00:00 9,6 -0,9 1024,4 0,0
08.04.2020 20:00:00 13,7 -1,5 1023,8 0,0
08.04.2020 19:00:00 19,3 -4,9 1023,7 0,0
08.04.2020 18:00:00 20,4 -3,3 1023,9 0,0
08.04.2020 17:00:00 20,5 -3,2 1024,3 0,0
08.04.2020 16:00:00 20,7 -3,8 1025,0 0,0
08.04.2020 15:00:00 20,5 -1,3 1025,7 0,0
08.04.2020 14:00:00 19,3 -1,8 1026,4 0,0
08.04.2020 13:00:00 18,8 -4,0 1027,1 0,0
08.04.2020 12:00:00 18,1 -3,4 1027,6 0,0
08.04.2020 11:00:00 17,1 -1,6 1028,2 0,0
08.04.2020 10:00:00 15,7 -2,8 1028,4 0,0
08.04.2020 09:00:00 13,2 -1,9 1028,5 0,0
08.04.2020 08:00:00 6,3 -1,8 1028,7 0,0
08.04.2020 07:00:00 1,3 - - -
08.04.2020 06:00:00 4,3 -3,0 1028,6 0,0
08.04.2020 05:00:00 7,3 -4,2 1028,5 0,0
08.04.2020 04:00:00 5,3 -3,0 1028,8 0,0
08.04.2020 03:00:00 4,9 -2,4 1029,5 0,0
08.04.2020 02:00:00 7,2 -3,1 1029,3 0,0
08.04.2020 01:00:00 5,4 -2,0 1029,7 0,0
08.04.2020 00:00:00 6,4 -1,7 1029,3 0,0
07.04.2020 23:00:00 6,5 -1,4 1029,2 0,0
07.04.2020 22:00:00 7,4 -1,6 1029,0 0,0
07.04.2020 21:00:00 9,3 -1,7 1028,6 0,0
07.04.2020 20:00:00 14,7 -3,6 1027,8 0,0
07.04.2020 19:00:00 18,2 -2,2 1027,2 0,0
07.04.2020 18:00:00 19,9 -4,4 1027,2 0,0
07.04.2020 17:00:00 20,4 -1,4 1027,4 0,0
07.04.2020 16:00:00 20,1 0,5 1027,7 0,0
07.04.2020 15:00:00 20,0 0,4 1028,2 0,0
07.04.2020 14:00:00 19,9 0,8 1028,7 0,0
07.04.2020 13:00:00 18,8 2,6 1029,1 0,0
07.04.2020 12:00:00 17,3 2,8 1029,6 0,0
07.04.2020 11:00:00 16,2 1,9 1029,5 0,0
07.04.2020 10:00:00 14,6 2,2 1029,5 0,0
07.04.2020 09:00:00 12,9 2,4 1029,2 0,0
07.04.2020 08:00:00 7,9 1,9 1029,0 0,0
07.04.2020 07:00:00 4,0 0,0 1028,9 0,0
07.04.2020 06:00:00 7,0 -0,5 1028,4 0,0
07.04.2020 05:00:00 5,5 -0,1 1028,5 0,0
07.04.2020 04:00:00 6,0 -0,1 1028,6 0,0
07.04.2020 03:00:00 6,0 -0,1 1028,5 0,0
07.04.2020 02:00:00 7,8 0,0 1028,4 0,0
07.04.2020 01:00:00 8,7 0,4 1027,9 0,0
07.04.2020 00:00:00 7,9 0,6 1027,9 0,0
06.04.2020 23:00:00 8,0 0,9 1027,9 0,0
06.04.2020 22:00:00 9,0 1,2 - -
06.04.2020 21:00:00 10,3 2,2 1026,7 0,0
06.04.2020 20:00:00 14,2 - 1025,9 0,0
06.04.2020 19:00:00 17,9 0,5 1025,4 0,0
06.04.2020 18:00:00 19,5 0,5 1025,2 0,0
06.04.2020 17:00:00 20,2 2,1 1025,4 0,0
06.04.2020 16:00:00 19,7 2,1 1025,8 0,0
06.04.2020 15:00:00 19,3 2,2 1026,3 0,0
06.04.2020 14:00:00 18,9 1,8 1026,6 0,0
06.04.2020 13:00:00 18,1 2,4 1026,8 0,0
06.04.2020 12:00:00 16,9 2,5 1027,1 0,0
06.04.2020 11:00:00 15,4 2,2 1027,5 0,0
06.04.2020 10:00:00 14,2 1,1 1027,3 0,0
06.04.2020 09:00:00 12,0 1,3 1027,0 0,0
06.04.2020 08:00:00 7,5 0,0 1026,9 0,0
06.04.2020 07:00:00 4,8 -1,2 1026,4 0,0
06.04.2020 06:00:00 3,9 -1,3 1026,0 0,0
06.04.2020 05:00:00 3,7 -1,1 1025,9 0,0
06.04.2020 04:00:00 3,9 -1,1 1025,9 0,0
06.04.2020 03:00:00 4,7 -0,7 1025,6 0,0
06.04.2020 02:00:00 4,2 -1,2 1025,8 0,0
06.04.2020 01:00:00 6,8 -0,9 1025,5 0,0
06.04.2020 00:00:00 9,7 -1,7 1025,0 0,0
05.04.2020 23:00:00 9,7 -1,1 1024,4 0,0
05.04.2020 22:00:00 8,5 -0,8 1024,3 0,0
05.04.2020 21:00:00 8,8 0,0 1023,9 0,0
05.04.2020 20:00:00 12,2 0,3 1023,2 0,0
05.04.2020 19:00:00 16,4 -1,7 1022,7 0,0
05.04.2020 18:00:00 17,4 -1,8 1022,6 0,0
05.04.2020 17:00:00 17,6 -2,1 1022,8 0,0
05.04.2020 16:00:00 17,7 -1,5 1023,3 0,0
05.04.2020 15:00:00 17,4 -0,8 1023,9 0,0
05.04.2020 14:00:00 16,9 -1,7 1024,3 0,0
05.04.2020 13:00:00 16,7 -0,5 1024,8 0,0
05.04.2020 12:00:00 15,6 1,3 1025,6 0,0
05.04.2020 11:00:00 14,1 1,4 1026,0 0,0
05.04.2020 10:00:00 12,7 1,1 1026,0 0,0
05.04.2020 09:00:00 10,8 1,1 1025,9 0,0
05.04.2020 08:00:00 5,6 -0,3 1025,7 0,0
05.04.2020 07:00:00 2,4 -1,6 1025,3 0,0
05.04.2020 06:00:00 2,8 -1,7 1024,8 0,0
05.04.2020 05:00:00 3,2 -1,0 1024,6 0,0
05.04.2020 04:00:00 3,1 -1,1 1024,5 0,0
05.04.2020 03:00:00 3,9 -1,3 1024,6 0,0
05.04.2020 02:00:00 4,8 -1,0 1024,7 0,0
05.04.2020 01:00:00 5,1 -0,9 1024,2 0,0
05.04.2020 00:00:00 5,5 -0,8 1023,9 0,0
04.04.2020 23:00:00 6,6 -0,6 1023,4 0,0
04.04.2020 22:00:00 7,1 - - 0,0
04.04.2020 21:00:00 8,1 0,6 1022,1 0,0
04.04.2020 20:00:00 13,1 -1,3 1021,1 0,0
04.04.2020 19:00:00 15,9 -1,7 1020,5 0,0
04.04.2020 18:00:00 17,3 -1,9 1020,2 0,0
04.04.2020 17:00:00 18,1 -1,2 1020,1 0,0
04.04.2020 16:00:00 17,8 -0,5 1020,5 0,0
04.04.2020 15:00:00 17,9 -1,4 1020,8 0,0
04.04.2020 14:00:00 17,2 -0,1 1021,2 0,0
04.04.2020 13:00:00 16,4 0,1 1021,7 0,0
04.04.2020 12:00:00 15,4 0,4 1022,1 0,0
04.04.2020 11:00:00 14,3 1,6 1022,2 0,0
04.04.2020 10:00:00 13,0 0,4 1021,7 0,0
04.04.2020 09:00:00 10,1 -0,4 1021,3 0,0
04.04.2020 08:00:00 5,4 -1,3 1021,0 0,0
04.04.2020 07:00:00 4,4 -2,7 1020,1 0,0
04.04.2020 06:00:00 5,9 -2,7 1019,3 0,0
04.04.2020 05:00:00 6,2 -2,2 1019,0 0,0
04.04.2020 04:00:00 5,2 -2,4 1018,9 0,0
04.04.2020 03:00:00 4,4 -1,8 1018,8 0,0
04.04.2020 02:00:00 4,5 -1,7 1018,6 0,0
04.04.2020 01:00:00 3,8 -1,6 1018,2 0,0
04.04.2020 00:00:00 4,0 -1,6 1017,6 0,0
03.04.2020 23:00:00 6,2 -1,0 1016,9 0,0
03.04.2020 22:00:00 5,6 -0,5 1016,4 0,0
03.04.2020 21:00:00 6,6 -0,4 1015,9 0,0
03.04.2020 20:00:00 11,1 -1,0 1015,0 0,0
03.04.2020 19:00:00 13,9 -2,1 1014,4 0,0
03.04.2020 18:00:00 15,1 -1,9 1014,1 0,0

tt = Temperatura
td = dewpoint
ppp = reduced air pressure
rr = precipitazioni

Stazioni seguenti

WeatherPro
AMSI
MeteoEarth